Weather History for Daytona Beach, FL

Change the Weather History Date:

Monday, March 11, 2013

  Actual Average Record
Temperature  
Mean Temperature 65 °F 64 °F  
Max Temperature 77 °F 74 °F 89 °F (1967)
Min Temperature 52 °F 54 °F 34 °F (1940)
Degree Days  
Heating Degree Days 0 4  
Month to date heating degree days 114 45  
Since 1 July heating degree days 580 727  
Cooling Degree Days 0 2  
Month to date cooling degree days 0 22  
Year to date cooling degree days 133 87  
Growing Degree Days 14 (Base 50)    
Moisture  
Dew Point 56 °F    
Average Humidity 73    
Maximum Humidity 100    
Minimum Humidity 46    
Precipitation  
Precipitation 0.00 in 0.13 in 3.55 in (1996)
Month to date precipitation 0.00 1.44  
Year to date precipitation 1.88 6.96  
Sea Level Pressure  
Sea Level Pressure 30.04 in    
Wind  
Wind Speed 6 mph (SE)    
Max Wind Speed 15 mph    
Max Gust Speed 22 mph    
Visibility 10 miles    
Events      
T = Trace of Precipitation, MM = Missing Value Source: NWS Daily Summary

Daily Weather History Graph

Daily Weather History Graph

Search for Another Location

Airport:

Trip Planner

Search our weather history database for the weather conditions in past years. The results will help you decide how hot, cold, wet, or windy it might be!

Date:

Astronomy

Mar. 11, 2013 Rise Set
Actual Time 7:38 AM EDT 7:30 PM EDT
Civil Twilight 7:14 AM EDT 7:54 PM EDT
Nautical Twilight 6:47 AM EDT 8:21 PM EDT
Astronomical Twilight 6:19 AM EDT 8:49 PM EDT
Moon 7:13 AM EDT (3/11) 7:36 PM EDT (3/11)
Length of Visible Light 12h 39m
Length of Day
11h 52m
Waning Crescent, 0% of the Moon is Illuminated
Mar 11
Waning Crescent
Mar 11
New
Mar 19
First Quarter
Mar 27
Full
Apr 3
Last Quarter

Hourly Weather History & Observations

Time (EDT) Temp. Dew Point Humidity Pressure Visibility Wind Dir Wind Speed Gust Speed Precip Events Conditions
12:53 AM 64.9 °F 54.0 °F 68% 30.14 in 10.0 mi East 4.6 mph - N/A   Mostly Cloudy
1:53 AM 63.0 °F 55.9 °F 78% 30.12 in 10.0 mi Calm Calm - N/A   Partly Cloudy
2:53 AM 57.9 °F 55.0 °F 90% 30.12 in 10.0 mi Calm Calm - N/A   Clear
3:53 AM 55.0 °F 53.1 °F 93% 30.09 in 8.0 mi Calm Calm - N/A   Clear
4:53 AM 54.0 °F 53.1 °F 97% 30.08 in 8.0 mi Calm Calm - N/A   Clear
5:53 AM 53.1 °F 52.0 °F 96% 30.06 in 9.0 mi Calm Calm - N/A   Clear
6:53 AM 55.0 °F 53.1 °F 93% 30.06 in 9.0 mi Calm Calm - N/A   Partly Cloudy
7:53 AM 54.0 °F 53.1 °F 97% 30.08 in 7.0 mi Calm Calm - N/A   Scattered Clouds
8:53 AM 62.1 °F 59.0 °F 90% 30.07 in 9.0 mi Calm Calm - N/A   Scattered Clouds
9:53 AM 70.0 °F 57.0 °F 63% 30.08 in 10.0 mi Variable 6.9 mph - N/A   Scattered Clouds
10:53 AM 71.1 °F 55.0 °F 57% 30.07 in 10.0 mi SSE 13.8 mph 21.9 mph N/A   Mostly Cloudy
11:53 AM 73.0 °F 55.9 °F 55% 30.07 in 10.0 mi SSE 8.1 mph 17.3 mph N/A   Mostly Cloudy
12:53 PM 75.0 °F 54.0 °F 48% 30.06 in 10.0 mi SSE 8.1 mph - N/A   Mostly Cloudy
1:53 PM 75.0 °F 53.1 °F 46% 30.05 in 10.0 mi South 9.2 mph - N/A   Mostly Cloudy
2:53 PM 75.0 °F 53.1 °F 46% 30.01 in 10.0 mi SSE 9.2 mph - N/A   Mostly Cloudy
3:53 PM 73.9 °F 57.0 °F 55% 29.98 in 10.0 mi SE 6.9 mph - N/A   Mostly Cloudy
4:53 PM 73.0 °F 55.9 °F 55% 29.96 in 10.0 mi SE 6.9 mph - N/A   Overcast
5:53 PM 72.0 °F 55.0 °F 55% 29.96 in 10.0 mi Variable 6.9 mph 17.3 mph N/A   Overcast
6:53 PM 70.0 °F 57.0 °F 63% 29.96 in 10.0 mi SE 5.8 mph - N/A   Overcast
7:53 PM 69.1 °F 59.0 °F 70% 29.96 in 10.0 mi Variable 6.9 mph - N/A   Overcast
8:53 PM 69.1 °F 59.0 °F 70% 29.96 in 10.0 mi SE 6.9 mph - N/A   Overcast
9:53 PM 69.1 °F 59.0 °F 70% 29.97 in 10.0 mi SSE 9.2 mph 16.1 mph N/A   Overcast
10:53 PM 69.1 °F 60.1 °F 73% 29.98 in 10.0 mi SSE 8.1 mph - N/A   Overcast
11:53 PM 69.1 °F 60.1 °F 73% 29.97 in 10.0 mi SSE 11.5 mph 18.4 mph N/A   Overcast